Sheridan, WY

2:55 AM MDT on September 18, 2014 (GMT -0600)
Sheridan County | Change Station
CLOSE
Current Station
Airport
Location: Sheridan,
Elevation: 3967 ft
Nearby Weather Stations

Elev 3967 ft 44.76 °N, 106.97 °W | Updated 1 hour ago

Clear
Clear
61 °F
Feels Like 61 °F
N
0
Wind Variable Wind from North

Today
High -- | Low -- °F
--% Chance of Precip.
Yesterday
High -- | Low -- °F
Precip. -- in
6:50 AM 7:12 PM
Waning Crescent, 29% visible
Pressure 29.79 in
Visibility 10.0 miles
Clouds Clear
Dew Point 45 °F
Humidity 56%
Rainfall 0.00 in
Snow Depth Not available.
UV 0 out of 12
Pollen 5.80 out of 12
Air Quality Not available.
Flu Activity Not available.
METAR KSHR 180753Z AUTO 00000KT 10SM CLR 16/07 A2990 RMK AO2 SLP086 T01610072

More Conditions Fewer Conditions

Pressure 29.79 in
Visibility 10.0 miles
Clouds Clear
Dew Point 45 °F
Humidity 56%
Rainfall 0.00 in
Snow Depth Not available.
UV 0 out of 12
Pollen 5.80 out of 12
Air Quality Not available.
Flu Activity Not available.
METAR KSHR 180753Z AUTO 00000KT 10SM CLR 16/07 A2990 RMK AO2 SLP086 T01610072

More Conditions Fewer Conditions

10-Day Weather Forecast

Almanac

Astronomy

Sep. 18, 2014 Rise Set
Actual Time 6:50 AM MDT 7:12 PM MDT
Civil Twilight 6:20 AM MDT 7:42 PM MDT
Nautical Twilight 5:46 AM MDT 8:16 PM MDT
Astronomical Twilight 5:10 AM MDT 8:51 PM MDT
Moon 1:34 AM MDT 4:14 PM MDT
Length of Visible Light 13h 21m
Length of Day
12h 22m
Tomorrow will be 3m 5s shorter.
Waning Crescent, 29% of the Moon is Illuminated
Today
Waning Crescent
Sep 24
New
Oct 1
First Quarter
Oct 8
Full
Oct 15
Last Quarter

Today's Extremes

State Highs State Lows

Community

WunderPhotos

Upload Photos

1,754,310 photos uploaded!

Nearby

Snow Depth

Station Depth Elevation
Phillips Bench 0 in 8200 ft
Gros Ventre Summit 1 in 8750 ft
Reno Hill 0 in 8500 ft
Willow Creek 1 in 8450 ft
Blind Bull Summit 2 in 8900 ft

Earthquake Activity

City Distance Mag. Time & Date
No recent earthquake activity has been reported nearby.
Minimum magnitude displayed is 2.5.

Coastal Water Temperatures

Place Temperature
No Stations Reporting

Nearby Weather Stations